Temp
-13 -13 -13 -13 -13 -12 -12 -13 -13 -12 -12 -12 -12 -12 -12 -12 -12 -12 -13 -13 -13 -12 -11 -11 -11 -12 -12 -12 -12 -13 -13 -13 -13 -13 -13 -14 -14 -13 -14 -14 -14 -14 -14
-13 -13 -13 -13 -13 -13 -13 -13 -13 -13 -12 -12 -12 -12 -13 -13 -13 -12 -12 -12 -12 -12 -12 -12 -12 -12 -12 -13 -13 -13 -13 -13 -13 -13 -13 -14 -14 -14 -15 -15 -15 -15 -15
-13 -13 -13 -13 -13 -13 -14 -14 -14 -14 -13 -13 -13 -13 -13 -12 -12 -11 -12 -12 -12 -12 -12 -12 -12 -12 -12 -13 -13 -13 -14 -14 -14 -13 -13 -13 -14 -14 -14 -15 -15 -15 -15
-14 -14 -14 -13 -13 -12 -13 -13 -13 -13 -12 -13 -12 -12 -12 -12 -12 -12 -12 -12 -12 -12 -12 -12 -12 -12 -12 -13 -13 -13 -14 -14 -14 -14 -14 -14 -14 -14 -14 -15 -15 -16 -16
-14 -14 -14 -14 -14 -14 -13 -13 -13 -13 -13 -13 -13 -13 -12 -12 -12 -12 -12 -12 -12 -12 -12 -13 -13 -13 -13 -13 -13 -14 -14 -14 -15 -15 -15 -15 -15 -15 -15 -16 -16 -16 -16
-14 -13 -13 -13 -13 -13 -13 -14 -14 -14 -13 -13 -13 -13 -13 -13 -12 -12 -12 -12 -13 -13 -13 -14 -14 -14 -14 -14 -14 -14 -14 -14 -15 -15 -15 -15 -15 -15 -15 -15 -15 -15 -15
-13 -13 -13 -14 -14 -14 -14 -14 -13 -13 -13 -13 -13 -13 -13 -13 -13 -13 -14 -14 -14 -14 -14 -14 -14 -14 -14 -14 -14 -15 -15 -15 -15 -15 -15 -15 -15 -16 -16 -15 -15 -15 -15
-14 -14 -14 -14 -14 -14 -14 -13 -13 -13 -13 -13 -13 -13 -13 -14 -14 -14 -14 -14 -15 -15 -15 -15 -15 -14 -15 -15 -15 -15 -15 -15 -16 -15 -15 -16 -16 -16 -16 -16 -16 -16 -16
-14 -15 -14 -14 -14 -14 -14 -13 -13 -13 -13 -13 -14 -14 -14 -14 -15 -15 -15 -15 -15 -15 -15 -16 -16 -16 -16 -16 -16 -17 -17 -16 -16 -16 -16 -17 -17 -17 -17 -16 -16 -16 -16
-15 -15 -14 -14 -14 -14 -13 -13 -13 -13 -14 -14 -14 -14 -15 -15 -15 -15 -15 -16 -16 -16 -17 -17 -17 -18 -19 -18 -18 -17 -17 -17 -17 -17 -17 -16 -17 -17 -17 -17 -17 -16 -16
-14 -14 -14 -14 -14 -14 -13 -13 -14 -14 -14 -14 -14 -15 -15 -16 -16 -16 -17 -17 -17 -17 -17 -18 -19 -19 -19 -19 -18 -18 -17 -17 -17 -17 -17 -17 -17 -17 -17 -17 -17 -17 -17
-14 -14 -14 -14 -14 -15 -15 -15 -15 -14 -14 -14 -15 -15 -16 -16 -16 -16 -17 -17 -16 -16 -17 -18 -18 -18 -18 -18 -18 -18 -18 -18 -18 -18 -17 -17 -18 -18 -18 -18 -17 -17 -17
-14 -14 -14 -14 -15 -15 -15 -15 -14 -14 -14 -14 -15 -15 -16 -16 -16 -16 -16 -17 -17 -17 -18 -18 -18 -18 -18 -18 -18 -18 -18 -18 -18 -18 -18 -18 -18 -19 -19 -19 -18 -18 -17
-14 -14 -14 -15 -15 -15 -15 -15 -15 -14 -14 -14 -15 -15 -16 -16 -16 -16 -16 -17 -17 -17 -17 -18 -18 -18 -18 -18 -18 -18 -18 -18 -18 -18 -18 -18 -18 -19 -19 -19 -19 -18 -18
-14 -14 -14 -14 -15 -15 -15 -15 -15 -15 -15 -15 -15 -15 -16 -16 -16 -17 -17 -17 -17 -17 -17 -17 -18 -18 -18 -18 -18 -18 -18 -18 -18 -18 -18 -18 -18 -19 -19 -19 -19 -19 -18
-14 -14 -14 -14 -15 -15 -15 -15 -15 -14 -15 -15 -15 -15 -16 -16 -16 -17 -17 -16 -17 -18 -17 -17 -18 -18 -17 -18 -18 -18 -18 -18 -18 -18 -18 -18 -18 -19 -19 -19 -19 -19 -18
-14 -14 -14 -14 -15 -15 -15 -15 -15 -15 -15 -15 -15 -16 -16 -16 -16 -17 -17 -17 -17 -18 -17 -17 -17 -17 -18 -18 -17 -17 -17 -17 -17 -17 -18 -18 -18 -19 -19 -19 -19 -19 -18
-14 -14 -14 -14 -15 -15 -15 -15 -15 -15 -15 -15 -16 -16 -16 -16 -16 -17 -17 -17 -17 -18 -17 -18 -18 -18 -17 -17 -17 -17 -17 -17 -17 -18 -18 -18 -18 -19 -19 -18 -18 -18 -19
-14 -15 -14 -14 -15 -15 -15 -15 -15 -15 -15 -15 -15 -15 -16 -16 -16 -17 -17 -17 -18 -17 -17 -18 -17 -18 -18 -18 -18 -17 -17 -18 -18 -18 -18 -19 -18 -18 -18 -18 -18 -18 -19
-14 -14 -15 -14 -15 -15 -15 -15 -15 -15 -16 -16 -16 -16 -16 -16 -16 -17 -17 -17 -17 -17 -17 -17 -17 -17 -18 -18 -18 -18 -18 -18 -18 -18 -18 -18 -18 -19 -18 -18 -18 -18 -18
-14 -14 -15 -14 -15 -15 -16 -16 -15 -16 -16 -16 -16 -16 -16 -16 -16 -16 -17 -17 -17 -17 -17 -17 -17 -17 -17 -17 -18 -18 -18 -18 -18 -18 -18 -18 -18 -18 -18 -18 -18 -19 -18
-14 -14 -15 -14 -14 -15 -16 -16 -16 -16 -16 -16 -16 -16 -16 -17 -17 -17 -17 -17 -17 -17 -17 -17 -17 -18 -18 -18 -17 -18 -18 -18 -18 -18 -18 -18 -18 -18 -18 -18 -18 -18 -18
-14 -15 -15 -15 -14 -15 -15 -16 -16 -16 -16 -16 -16 -16 -17 -17 -16 -16 -17 -17 -17 -17 -18 -18 -18 -18 -18 -18 -18 -18 -17 -18 -18 -18 -18 -18 -18 -18 -18 -18 -18 -18 -18
-14 -15 -15 -15 -15 -15 -15 -15 -16 -16 -16 -16 -16 -16 -17 -17 -17 -17 -17 -17 -17 -18 -18 -18 -18 -18 -18 -18 -18 -18 -18 -17 -17 -17 -18 -18 -18 -18 -17 -17 -18 -18 -18
-15 -15 -15 -15 -15 -15 -15 -15 -15 -16 -16 -16 -16 -17 -17 -17 -17 -17 -17 -17 -17 -17 -17 -17 -18 -18 -18 -18 -18 -18 -18 -17 -17 -17 -17 -17 -17 -17 -18 -17 -17 -17 -17
-15 -15 -15 -15 -15 -15 -15 -15 -15 -15 -15 -16 -16 -16 -16 -17 -17 -17 -17 -17 -17 -17 -17 -17 -17 -18 -18 -18 -18 -18 -18 -18 -18 -18 -17 -17 -18 -17 -17 -17 -17 -17 -17
Height
5759 5761 5766 5768 5770 5772 5771 5770 5771 5771 5770 5767 5765 5764 5762 5760 5756 5753 5749 5747 5744 5742 5739 5736 5733 5730 5726 5723 5721 5717 5715 5713 5714 5716 5713 5712 5709 5706 5705 5706 5706 5705 5704
5751 5755 5757 5760 5761 5761 5761 5759 5761 5760 5758 5756 5753 5752 5749 5746 5744 5742 5739 5736 5731 5726 5722 5719 5715 5712 5710 5707 5704 5700 5698 5695 5694 5697 5695 5693 5693 5691 5690 5687 5686 5687 5688
5747 5749 5751 5753 5754 5752 5750 5749 5750 5749 5747 5746 5743 5741 5737 5734 5730 5726 5723 5719 5715 5711 5707 5703 5698 5693 5690 5687 5684 5681 5679 5676 5674 5675 5678 5675 5675 5674 5672 5670 5672 5668 5667
5743 5745 5745 5743 5744 5744 5744 5743 5741 5739 5736 5734 5731 5727 5723 5720 5715 5711 5706 5702 5697 5693 5688 5684 5680 5675 5672 5669 5665 5662 5657 5655 5653 5654 5656 5655 5654 5653 5651 5651 5651 5645 5645
5736 5736 5736 5738 5739 5738 5737 5736 5732 5729 5726 5723 5719 5714 5710 5705 5701 5697 5692 5685 5680 5674 5668 5663 5659 5655 5650 5646 5642 5639 5635 5634 5632 5632 5632 5632 5631 5630 5630 5630 5629 5626 5625
5732 5733 5734 5732 5729 5728 5727 5724 5721 5718 5714 5710 5705 5700 5695 5689 5684 5679 5675 5667 5661 5655 5649 5644 5639 5634 5629 5626 5622 5619 5617 5614 5613 5611 5612 5611 5611 5610 5610 5611 5610 5611 5610
5728 5727 5726 5726 5724 5721 5720 5716 5713 5707 5703 5697 5692 5686 5680 5674 5668 5662 5657 5650 5643 5637 5631 5626 5620 5614 5609 5606 5602 5600 5597 5594 5592 5591 5592 5592 5591 5591 5590 5592 5593 5595 5597
5725 5724 5723 5721 5718 5716 5713 5709 5704 5699 5692 5686 5680 5673 5665 5660 5653 5646 5639 5632 5625 5618 5612 5606 5601 5595 5589 5585 5583 5581 5578 5576 5572 5571 5571 5570 5570 5570 5571 5573 5576 5579 5582
5720 5718 5717 5715 5712 5709 5705 5699 5693 5687 5680 5673 5667 5661 5655 5648 5640 5633 5626 5616 5607 5600 5593 5585 5579 5573 5565 5561 5561 5561 5560 5557 5554 5552 5551 5551 5550 5549 5551 5554 5559 5562 5568
5716 5714 5712 5708 5703 5698 5692 5687 5681 5674 5668 5662 5657 5650 5642 5633 5625 5617 5610 5603 5595 5589 5579 5570 5560 5552 5545 5542 5546 5547 5547 5543 5540 5537 5535 5534 5533 5532 5533 5536 5539 5545 5551
5709 5707 5703 5698 5692 5687 5681 5676 5669 5665 5660 5652 5645 5638 5629 5622 5614 5607 5600 5592 5585 5579 5570 5560 5551 5542 5537 5536 5536 5536 5535 5532 5528 5525 5522 5520 5518 5517 5517 5518 5523 5528 5534
5704 5700 5695 5689 5683 5677 5672 5668 5664 5658 5652 5644 5636 5629 5621 5614 5608 5601 5593 5587 5580 5574 5568 5559 5550 5543 5538 5535 5532 5529 5526 5523 5520 5516 5513 5510 5506 5503 5501 5503 5507 5513 5521
5697 5693 5687 5682 5677 5671 5668 5664 5658 5653 5647 5639 5631 5624 5618 5611 5606 5600 5594 5588 5583 5576 5568 5561 5553 5547 5541 5536 5531 5526 5521 5517 5513 5509 5506 5502 5496 5490 5486 5488 5493 5499 5507
5692 5686 5681 5677 5674 5669 5665 5658 5654 5648 5642 5636 5630 5625 5619 5613 5608 5603 5596 5590 5585 5578 5571 5564 5556 5548 5542 5537 5530 5523 5516 5509 5504 5501 5498 5494 5490 5484 5480 5480 5483 5490 5498
5685 5681 5677 5674 5670 5665 5660 5656 5651 5646 5641 5636 5631 5627 5623 5617 5612 5607 5602 5595 5587 5580 5573 5565 5557 5551 5544 5537 5529 5520 5511 5503 5496 5493 5491 5490 5487 5483 5478 5477 5480 5485 5491
5680 5677 5674 5670 5666 5662 5659 5654 5650 5646 5642 5638 5634 5629 5624 5619 5615 5609 5604 5597 5588 5583 5577 5569 5561 5555 5547 5540 5533 5521 5510 5501 5494 5492 5489 5489 5487 5483 5479 5478 5480 5484 5490
5676 5673 5670 5666 5663 5660 5657 5653 5650 5647 5643 5640 5635 5631 5626 5621 5616 5611 5606 5599 5593 5587 5582 5574 5567 5561 5553 5545 5537 5527 5516 5506 5500 5496 5494 5492 5488 5485 5483 5483 5484 5488 5493
5672 5669 5666 5663 5661 5658 5656 5653 5650 5648 5644 5641 5637 5632 5626 5621 5618 5613 5608 5602 5597 5594 5587 5581 5574 5567 5560 5552 5543 5534 5526 5518 5510 5504 5501 5497 5493 5491 5490 5489 5490 5493 5497
5668 5665 5663 5660 5658 5656 5654 5652 5649 5647 5643 5640 5636 5632 5627 5623 5620 5616 5612 5607 5603 5597 5592 5586 5579 5573 5567 5559 5551 5543 5535 5527 5522 5515 5510 5506 5503 5501 5499 5499 5499 5502 5505
5664 5662 5660 5657 5655 5653 5651 5650 5648 5645 5643 5640 5637 5633 5629 5626 5622 5618 5614 5610 5605 5601 5596 5590 5585 5580 5573 5567 5560 5553 5546 5537 5531 5527 5522 5518 5515 5512 5511 5510 5510 5511 5513
5659 5658 5656 5654 5652 5649 5648 5647 5645 5643 5640 5638 5636 5633 5629 5625 5623 5619 5616 5611 5607 5603 5599 5594 5589 5585 5580 5574 5568 5563 5556 5549 5542 5537 5533 5530 5528 5525 5522 5520 5520 5520 5520
5655 5653 5652 5650 5649 5647 5645 5644 5642 5640 5638 5635 5633 5630 5628 5624 5621 5618 5615 5612 5608 5604 5600 5596 5592 5587 5583 5579 5575 5570 5565 5559 5553 5549 5544 5539 5537 5536 5534 5531 5529 5528 5527
5650 5649 5648 5647 5646 5644 5642 5640 5638 5637 5635 5633 5631 5628 5626 5623 5621 5618 5614 5611 5608 5605 5602 5598 5594 5590 5586 5582 5578 5574 5570 5567 5563 5559 5554 5550 5547 5544 5542 5540 5538 5536 5534
5644 5644 5643 5643 5642 5641 5639 5637 5635 5634 5633 5631 5629 5627 5624 5622 5619 5617 5613 5610 5608 5604 5602 5599 5596 5592 5588 5584 5581 5578 5574 5571 5569 5566 5562 5559 5556 5553 5550 5548 5546 5545 5543
5639 5639 5638 5638 5638 5638 5637 5635 5633 5631 5629 5628 5626 5624 5622 5620 5617 5614 5612 5609 5606 5603 5600 5598 5595 5592 5589 5586 5582 5579 5577 5574 5571 5568 5566 5564 5562 5560 5557 5555 5553 5552 5550
5632 5633 5633 5634 5634 5633 5633 5632 5630 5629 5627 5625 5623 5621 5619 5617 5615 5612 5609 5607 5605 5602 5600 5597 5595 5591 5588 5585 5583 5580 5577 5574 5572 5570 5567 5565 5564 5562 5561 5559 5558 5556 5555
Wind_Speed
44 49 46 47 42 39 42 48 48 42 50 52 53 54 58 58 57 56 55 55 56 59 60 62 63 61 61 60 60 61 60 60 59 58 57 56 59 53 53 51 55 63 66
37 38 41 44 43 44 46 41 37 48 47 51 56 57 51 51 51 54 56 58 59 60 61 62 64 64 63 63 63 64 64 65 66 63 62 56 56 52 57 65 71 69 68
30 34 36 39 50 54 47 45 40 39 44 51 45 47 48 51 50 53 55 57 60 61 62 64 64 66 68 68 68 68 68 68 68 68 61 67 64 75 72 70 72 73 70
36 47 46 47 55 50 37 34 36 36 38 39 40 43 46 49 51 54 57 60 63 65 66 68 69 70 71 73 73 73 72 71 72 69 68 68 69 72 71 70 70 72 70
31 16 15 21 23 25 30 34 32 33 34 36 39 42 46 50 53 56 60 62 65 68 70 71 72 71 68 67 66 66 65 65 65 65 64 63 64 63 61 57 54 52 53
8 12 17 19 23 26 28 30 33 35 38 42 45 49 53 54 57 60 61 62 62 60 58 58 60 61 63 63 63 62 62 61 61 61 59 58 57 58 58 56 52 47 45
14 18 21 23 23 26 30 32 37 40 43 47 50 54 57 56 55 53 51 54 56 59 61 63 64 64 65 65 65 64 63 62 63 64 65 65 63 61 60 57 54 50 44
18 19 20 23 24 27 32 36 41 44 48 51 54 54 51 48 50 54 56 57 57 59 61 63 64 65 65 65 63 62 61 59 59 59 59 60 64 64 61 59 55 52 46
20 22 23 25 29 34 38 42 46 49 54 50 42 43 47 49 49 51 54 54 54 55 55 56 58 59 61 61 59 55 52 50 51 54 55 53 53 56 58 59 54 51 44
21 23 27 32 37 40 44 48 49 45 36 40 43 44 44 49 51 50 49 48 47 47 48 48 48 47 47 46 41 37 37 40 42 42 43 44 46 47 46 46 49 51 46
26 30 35 37 41 45 46 40 31 35 39 39 41 46 45 41 39 37 35 36 36 34 34 30 25 24 21 21 25 28 32 34 35 36 35 36 37 39 42 43 44 41 41
27 30 35 39 38 33 28 28 32 32 34 37 34 32 29 28 27 28 28 26 24 24 23 24 23 21 18 17 18 20 22 20 22 24 25 26 29 32 36 37 37 38 35
27 33 32 30 29 26 28 28 25 29 23 27 30 26 24 24 25 22 21 23 26 23 22 23 24 25 24 21 21 22 25 26 24 23 24 21 27 29 26 28 31 32 31
27 27 26 22 26 25 27 21 24 23 22 26 24 24 23 21 20 19 21 22 22 24 23 26 27 29 24 21 26 28 29 27 24 26 27 24 23 23 17 17 21 24 24
26 26 19 22 25 26 20 19 20 19 21 21 21 20 21 22 19 20 21 21 22 24 28 32 32 31 30 29 32 32 29 26 22 17 18 14 14 17 11 7 11 17 25
26 23 20 21 25 23 14 15 18 14 15 18 17 16 17 15 15 17 19 28 27 30 36 35 35 34 36 33 32 39 35 27 17 14 12 5 12 13 8 2 7 14 20
25 19 18 20 23 16 10 11 12 9 12 17 17 19 18 18 18 20 20 25 25 29 33 36 38 40 31 36 38 41 42 37 29 22 19 13 13 12 10 4 10 14 17
24 17 15 19 21 12 7 9 10 8 9 13 19 26 19 15 19 21 20 24 27 26 28 33 36 35 39 41 39 40 40 39 41 27 25 23 18 17 16 11 9 11 14
24 17 14 18 20 12 7 6 9 10 10 9 14 20 24 21 19 18 18 20 21 25 25 30 33 32 36 40 39 43 42 35 39 41 34 30 28 26 24 22 17 15 20
21 16 13 17 19 14 9 7 10 11 10 9 12 15 19 16 18 17 15 15 21 21 27 28 31 33 33 35 39 37 40 40 35 39 39 37 39 30 30 25 22 17 13
19 16 13 16 17 17 10 9 10 10 10 11 12 13 12 14 17 14 12 12 13 20 22 24 26 29 32 33 34 32 31 36 37 34 37 38 36 33 28 24 24 19 15
17 16 14 14 16 17 12 9 8 9 10 11 12 11 8 9 10 12 11 9 13 16 20 20 24 27 29 29 30 30 31 31 32 32 36 37 25 25 27 28 25 21 16
17 16 16 14 15 15 13 10 9 9 9 8 9 11 11 9 11 14 15 12 13 17 15 17 21 22 22 23 25 26 27 26 27 28 27 27 30 31 30 28 26 25 20
15 17 17 16 15 14 13 11 9 8 8 8 8 9 9 10 11 12 13 10 11 15 14 17 22 22 20 20 18 17 19 21 22 21 21 22 24 25 27 27 26 25 23
17 18 18 17 17 14 13 11 10 9 8 7 7 8 10 10 10 12 12 11 9 9 12 16 19 17 16 17 15 15 14 13 14 16 17 16 16 16 17 18 19 20 20
21 19 19 18 16 14 14 12 9 8 9 9 9 10 10 10 10 11 12 13 12 12 12 13 14 17 18 18 14 11 12 12 13 12 11 11 11 11 12 12 12 12 13
Wind_Direction
245 247 254 256 255 266 261 263 270 273 275 272 274 276 272 269 272 270 277 280 280 278 277 279 280 280 280 279 276 276 277 278 276 275 278 278 274 266 273 271 276 280 284
244 236 242 246 266 267 263 257 270 284 279 274 275 274 280 281 283 282 282 282 283 284 285 285 284 285 283 281 280 280 278 277 277 279 278 272 265 270 267 269 278 283 279
235 257 254 260 256 256 278 285 282 279 282 273 279 284 285 284 283 284 285 284 284 283 283 282 282 283 283 283 282 281 279 277 275 274 270 272 267 267 277 275 276 275 275
246 247 241 245 248 268 275 283 285 278 278 280 282 284 286 288 288 288 288 287 286 285 284 283 282 281 280 279 278 277 277 277 277 276 275 274 273 272 274 274 274 272 272
237 258 280 269 265 275 271 273 280 284 287 292 295 295 293 292 291 289 287 286 285 284 283 283 283 284 283 281 279 277 276 275 275 275 274 273 272 271 271 272 273 274 271
290 263 261 275 287 293 295 298 297 294 294 295 297 298 297 295 294 292 290 288 287 287 286 284 283 282 281 279 279 278 277 276 274 272 270 268 268 268 269 271 271 269 271
301 300 296 293 293 296 298 300 302 303 301 301 300 299 297 298 296 296 293 291 288 286 285 284 283 283 282 282 281 280 279 279 277 275 273 273 271 271 270 269 268 269 268
291 288 288 291 296 296 298 301 303 303 304 303 301 301 300 298 296 294 294 294 294 293 291 289 287 285 281 278 276 275 276 277 276 276 275 274 270 268 268 267 267 268 268
293 293 296 298 293 292 299 306 309 309 309 307 303 298 296 297 299 300 299 299 298 297 295 293 290 287 283 280 277 275 276 274 274 272 273 274 273 271 267 264 265 265 265
291 292 297 300 307 310 311 312 311 313 307 304 304 305 306 306 306 305 302 301 300 301 304 303 301 295 289 286 283 280 276 276 280 281 280 277 273 269 267 266 261 258 257
302 309 313 315 314 313 312 310 309 309 311 313 314 312 309 308 312 314 314 314 316 320 324 325 329 329 318 303 290 285 282 283 284 285 284 282 279 274 267 262 257 256 250
320 323 319 315 315 313 311 312 319 322 324 327 328 327 328 335 337 336 337 340 341 336 329 339 346 345 337 325 313 305 299 295 302 297 298 297 294 284 272 260 255 250 244
323 321 318 318 319 317 317 327 330 328 341 345 349 353 353 353 354 2 22 29 21 14 23 18 15 9 359 352 344 335 326 307 304 307 309 305 317 307 276 256 244 239 240
323 328 326 329 321 321 332 336 330 342 344 346 350 358 2 9 17 31 23 23 21 16 18 14 12 11 10 350 342 338 335 331 314 297 307 304 313 319 296 258 242 233 231
334 332 327 327 325 334 340 332 348 348 359 11 16 16 21 20 35 34 28 15 18 22 30 24 22 25 22 13 3 352 339 330 325 321 302 313 328 335 321 261 218 215 200
340 328 328 325 329 341 334 343 355 3 17 31 29 30 26 23 26 13 13 25 34 39 34 29 31 27 22 21 16 21 21 13 1 353 349 320 349 351 355 188 172 188 192
336 324 325 323 331 340 335 3 14 13 27 26 16 16 23 24 17 10 17 29 37 30 31 34 37 27 31 33 30 31 32 31 34 43 44 31 13 30 47 91 158 178 184
330 319 320 321 330 329 328 3 15 16 40 33 30 25 19 16 10 20 37 37 34 37 36 34 35 37 35 34 29 29 35 42 42 41 43 44 47 51 62 82 113 133 143
330 315 315 314 326 321 306 332 350 359 11 18 5 4 12 27 33 41 23 30 30 33 29 25 27 30 28 31 36 40 37 42 47 50 51 53 56 58 63 70 84 110 136
329 313 308 310 321 323 286 300 320 330 344 358 358 360 7 15 29 27 22 32 33 31 25 28 29 32 31 31 34 36 35 43 50 50 56 52 54 67 63 68 73 84 107
326 308 299 302 317 321 291 295 311 323 320 325 336 350 357 9 27 32 34 37 21 16 25 19 25 27 30 31 30 36 41 49 52 52 54 57 56 52 46 53 75 76 84
318 302 290 292 307 315 302 291 301 311 328 347 352 357 348 342 351 348 6 17 15 11 7 14 19 21 26 32 32 28 38 46 52 54 54 59 55 45 54 60 60 57 57
312 295 279 280 291 306 315 304 297 301 313 330 340 348 5 5 346 337 330 346 353 359 6 15 13 12 13 19 29 35 32 37 48 52 56 57 61 59 56 57 55 60 62
295 287 273 271 273 288 306 315 319 309 301 311 324 329 340 345 346 355 7 343 329 343 354 359 7 9 11 8 9 25 36 37 33 37 47 54 59 60 61 59 62 63 56
275 271 266 263 264 276 288 305 323 334 335 331 326 323 328 335 340 342 354 1 357 341 336 334 341 355 1 5 1 351 1 19 32 36 32 31 34 43 55 61 60 58 60
259 252 255 250 257 271 280 283 295 313 329 338 345 354 357 357 356 352 349 350 349 347 341 336 336 336 334 338 345 351 344 344 351 1 12 17 19 20 24 31 38 51 58